This demonstration page uses our WeatherBlox Daily Observations layout. Learn more.

Left ArrowRight Arrow

Hourly Observations for January 11, 2022

Temp ( °F °C ) Dew Point ( °F °C ) Humidity (%) Winds ( mph kmh ) Pressure ( in mb ) Visibility ( mi km ) Precip ( " mm )
12:53 am 00:53 Clear 37 2.8 14 -10 39 39 NNW 5 7 30.45 1031 10 16 0.00 0.00
1:53 am 01:53 Clear 36 2.2 14 -10 40 40 N 12 19 30.44 1031 10 16 0.00 0.00
2:53 am 02:53 Clear 35 1.7 14 -10 42 42 N 12 19 30.43 1030 10 16 0.00 0.00
3:53 am 03:53 Clear 34 1.1 14 -10 44 44 NNW 8 13 30.43 1031 10 16 0.00 0.00
4:53 am 04:53 Clear 33 0.6 15 -9.4 47 47 NNW 6 9 30.43 1031 10 16 0.00 0.00
5:53 am 05:53 Clear 32 0 15 -9.4 50 50 NNW 6 9 30.45 1031 10 16 0.00 0.00
6:53 am 06:53 Clear 32 0 15 -9.4 50 50 Calm 30.47 1032 10 16 0.00 0.00
7:53 am 07:53 Sunny 31 -0.6 17 -8.3 56 56 Calm 30.49 1033 10 16 0.00 0.00
7:58 am 07:58 Sunny 30 -1.1 17 -8.3 58 58 NNW 3 6 30.53 1034 10 16 0.00 0.00
8:01 am 08:01 Sunny 30 -1.1 17 -8.3 58 58 NNW 3 6 30.53 1034 10 16 0.00 0.00
8:53 am 08:53 Sunny 33 0.6 18 -7.8 54 54 N 3 6 30.51 1033 10 16 0.00 0.00
9:53 am 09:53 Sunny 38 3.3 17 -8.3 43 43 N 6 9 30.52 1034 10 16 0.00 0.00
10:53 am 10:53 Sunny 41 5 17 -8.3 38 38 N 3 6 30.53 1034 10 16 0.00 0.00
11:53 am 11:53 Sunny 45 7.2 17 -8.3 33 33 E 8 13 30.52 1034 10 16 0.00 0.00
12:53 pm 12:53 Sunny 46 7.8 17 -8.3 31 31 E 3 6 30.49 1032 10 16 0.00 0.00
1:53 pm 13:53 Sunny 48 8.9 15 -9.4 27 27 Calm 30.45 1031 10 16 0.00 0.00
2:53 pm 14:53 Sunny 50 10 17 -8.3 27 27 NNW 6 9 30.44 1031 10 16 0.00 0.00
3:53 pm 15:53 Sunny 50 10 16 -8.9 26 26 ENE 3 6 30.43 1031 10 16 0.00 0.00
4:53 pm 16:53 Sunny 50 10 16 -8.9 26 26 Calm 30.42 1030 10 16 0.00 0.00
5:53 pm 17:53 Clear 47 8.3 16 -8.9 29 29 Calm 30.43 1030 10 16 0.00 0.00
6:53 pm 18:53 Clear 42 5.6 21 -6.1 43 43 Calm 30.45 1031 10 16 0.00 0.00
7:53 pm 19:53 Clear 38 3.3 25 -3.9 60 60 Calm 30.46 1032 10 16 0.00 0.00
8:53 pm 20:53 Clear 36 2.2 26 -3.3 67 67 Calm 30.47 1032 10 16 0.00 0.00
9:53 pm 21:53 Clear 34 1.1 24 -4.4 67 67 Calm 30.47 1032 10 16 0.00 0.00
10:53 pm 22:53 Clear 33 0.6 25 -3.9 72 72 Calm 30.46 1032 10 16 0.00 0.00
11:53 pm 23:53 Clear 31 -0.6 25 -3.9 79 79 Calm 30.45 1031 10 16 0.00 0.00

Powered by AerisWeather